タイバー彗星

C/1996 Q1 ( Tabur )

English version
Home page
Updated on November 10, 2002

---------------------------------------------------------------------

・ プロフィール

発見日 1996年8月19日
発見光度 10等
発見者 Vello Tabur (Wanniassa, Australian Capital Territory)

・ 写真集

・ 軌道要素

   The following improved orbital elements  by Kenji Muraoka, are 
  from 170 observations  1996 Aug. 21  to  Oct. 16, perturbations 
  by 9 Planets, Moon and 5 minor planets  were taken into account.
   The mean residual is +/- 0.84 arc seconds.

      Epoch  =  1996 Nov. 13.0  TT       JDT = 2450400.5
          T  =  1996 Nov.  3.52909       +/- 0.00271 (m.e.) TT
       Peri. =   57.40985                +/- 0.00239
       Node  =   31.40097                +/- 0.00147   (2000.0)
       Incl. =   73.35731                +/- 0.00147
          q  =    0.8398150              +/- 0.0000137 AU
          e  =    0.9987931              +/- 0.0001381
        1/a  =   +0.0014371              +/- 0.0001644 1/AU
        ( P  =  18356 years )
  orig. 1/a  =   +0.0019533 
  fut.  1/a  =   +0.0013944 

・ 星図

・ 1996年 5月 7日〜1996年 9月29日
・ 1996年 9月19日〜1996年11月 3日
・ 1996年10月 4日〜1997年 8月10日

・ 光度変化

        m1 =  6.6 + 5 logΔ + 15.0 log r  [   ,-35]  (              〜1996年 9月29日)
        m1 =  7.2 + 5 logΔ -  3.5 log r  [-35,-15]  (1996年 9月29日〜1996年10月19日)
        m1 =  3.5 + 5 logΔ - 80   log r  [-15,  0]  (1996年10月19日〜1996年11月 3日)
        m1 = 11.2 + 5 logΔ + 20.0 log r  [  0,   ]  (1996年11月 3日〜              )

        ※ 灰色の曲線は、m1 = 6.6 + 5 logΔ + 15.0 log r の光度曲線です。

---------------------------------------------------------------------

軌道要素は村岡健治氏の計算によるものです。
星図は StellaNavigator Ver.2.0 for Windows (アストロアーツ 編著 / アスキー出版局刊) で作成したものです。
光度グラフはComet for Windowsで作成したものです。

---------------------------------------------------------------------

Copyright(C) Seiichi Yoshida (comet@aerith.net). All rights reserved.